Regional Weather Roundup
Issued by NWS

Home | Current Version | Previous Version | Text Only | Print | Product List | Glossary On
Versions: 1 2 3 4 5 6 7 8 9 10 11 12 13 14 15 16 17 18 19 20 21 22 23 24 25 26 27 28 29 30 31 32 33 34 35 36 37 38 39 40 41 42 43 44 45 46 47 48 49 50
000
ASUS43 KIND 280409
RWRIN

WEATHER ROUNDUP FOR INDIANA
NATIONAL WEATHER SERVICE INDIANAPOLIS IN
1100 PM EST THU NOV 27 2014

NOTE: "FAIR" INDICATES FEW OR NO CLOUDS BELOW 12,000 FEET WITH NO
SIGNIFICANT WEATHER AND/OR OBSTRUCTIONS TO VISIBILITY.

* - STATION DOES NOT REPORT WEATHER SUCH AS PRECIPITATION OR FOG.

+ - STATION NOT QUALITY CONTROLLED BY THE NATIONAL WEATHER SERVICE.
    USE DATA WITH CAUTION...ESPECIALLY DEWPOINT AND RELATIVE
    HUMIDITY OBSERVATIONS.

INZ001>003-010>013-019-020-280500-
NORTHWEST INDIANA

CITY           SKY/WX    TMP DP  RH WIND       PRES   REMARKS
GARY /AIRPORT/ MOCLDY    22  10  60 W7        30.41S WCI  14
KNOX *+        CLOUDY    23  15  72 NW5       30.38S WCI  16
LA PORTE +     CLOUDY    25  14  63 W3        30.39R
MICHIGAN CITY+ CLOUDY    25  10  54 W3        30.39S
MONTICELLO +   CLOUDY    23  19  81 NW5       30.40R WCI  17
RENSSELAER +   CLOUDY    23  19  86 W5        30.41R WCI  17
VALPARAISO     CLOUDY    20  13  74 CALM      30.39S

$$

LMZ046-743>745-280500-
SOUTHERN LAKE MICHIGAN

STATION/POSITION TIME  TEMP WIND        PRES
                       AIR  DIR/SP/G
                 (UTC) (F)  (DEG/KT/KT) (MB)
MICHIGAN CITY    0400   23  270/ 10/ 14   N/A

$$

INZ004-005-014>016-021>024-280500-
NORTH CENTRAL INDIANA

CITY           SKY/WX    TMP DP  RH WIND       PRES   REMARKS
GOSHEN         CLOUDY    22  18  85 W8        30.35R WCI  12
LOGANSPORT +   CLOUDY    23  16  74 W3        30.39F
PERU/GRISSOM   CLOUDY    24  19  81 W7        30.38R WCI  16
ROCHESTER +    CLOUDY    27  19  74 W7        30.39R WCI  19
SOUTH BEND     CLOUDY    23  14  68 W10       30.36S WCI  12
WARSAW +       PTCLDY    19  18  93 W3        30.36S

$$

INZ006>009-017-018-025>027-280500-
NORTHEAST INDIANA

CITY           SKY/WX    TMP DP  RH WIND       PRES   REMARKS
ANGOLA *+      CLOUDY    21  16  79 NW5       30.32S WCI  15
AUBURN +       LGT SNOW  27  21  80 W6        30.35R WCI  20
FORT WAYNE     CLOUDY    24  19  81 W12       30.37R WCI  13
HUNTINGTON +   PTCLDY    22  18  83 W5        30.37R WCI  16

$$

INZ028-029-035-036-043>045-051>053-280500-
WEST CENTRAL INDIANA

CITY           SKY/WX    TMP DP  RH WIND       PRES   REMARKS
GREENCASTLE +  FLURRIES  25  21  86 W3        30.41S
LAFAYETTE      CLOUDY    21  17  84 W10       30.42R WCI  10
TERRE HAUTE    CLEAR     20  14  77 W5        30.45S WCI  13

$$

INZ030>032-037>040-046>048-054>057-064-065-280500-
CENTRAL INDIANA

CITY           SKY/WX    TMP DP  RH WIND       PRES   REMARKS
CP ATTERBURY + CLOUDY    28  25  86 CALM      30.41S
FRANKFORT +    FLURRIES  24  20  86 W9        30.41S WCI  14
INDIANAPOLIS   FLURRIES  25  18  74 NW10      30.39S WCI  15
-EAGLE CREEK   FLURRIES  25  18  74 NW10      30.39S WCI  15
KOKOMO *+      CLOUDY    25  16  68 NW10      30.38S WCI  15
MARION +         N/A     24  17  75 NW9       30.38S WCI  15
MT COMFORT *+  CLOUDY    25  14  63 N6        30.39S WCI  18
SHELBYVILLE    CLOUDY    27  21  78 NW7       30.39S WCI  19
ZIONSVILLE +   CLOUDY    25  18  76 NW7       30.39F WCI  17

$$

INZ033-034-041-042-049-050-058-059-280500-
EAST CENTRAL INDIANA

CITY           SKY/WX    TMP DP  RH WIND       PRES   REMARKS
MUNCIE         CLOUDY    24  16  71 NW9       30.37S WCI  14

$$

INZ060-061-067>069-081>083-085>088-280500-
SOUTHWEST INDIANA

CITY           SKY/WX    TMP DP  RH WIND       PRES   REMARKS
EVANSVILLE     CLEAR     24  19  81 CALM      30.47F
HUNTINGBURG *+ CLEAR     23  16  74 W6        30.46S WCI  16
WASHINGTON +   PTCLDY    24  21  88 NW7       30.45S WCI  16

$$

INZ062-063-066-070>080-084-089>092-280500-
SOUTH CENTRAL AND SOUTHEAST INDIANA

CITY           SKY/WX    TMP DP  RH WIND       PRES   REMARKS
BLOOMINGTON    PTCLDY    22  19  89 W6        30.41S WCI  14
SEYMOUR +      FLURRIES  30  25  80 W5        30.42S WCI  25

$$



USA.gov is the U.S. government's official web portal to all federal, state and local government web resources and services.